Location: Bessat
(45.8735°N, 1.9924°E)
Time: 23:04:58
(UTC+00:00)

Landsat 7 - Pass Details

Date: 11 May 2021
Orbit: 701 x 703 km, 98.0° (Epoch: 24 June)

Event Time Altitude Azimuth Distance (km) Brightness Sun altitude
Exits shadow 20:23:22 12° 156° (SSE) 2,027 5.6 -11.0°
Maximum altitude 20:27:44 71° 74° (ENE) 748 3.8 -11.6°
Drops below altitude 10° 20:32:30 10° 351° (N) 2,182 7.2 -12.2°
Sets 20:34:46 0° 349° (N) 3,105 8.1 -12.5°
